Home   Weather   Einbeck   Past weeks

Flag for Germany Past Weather in Einbeck, Lower Saxony, Germany — Yesterday and Last 2 Weeks

Now
52 °F

Passing clouds.


Feels Like: 50 °F
Forecast: 47 / 60 °F
Wind: 6 mph from South

Location: Hannover

Current Time: Oct 1, 2016 at 3:39:15 AM

Latest Report: Oct 1, 2016 at 2:50 AM


Visibility: N/A

Pressure: 29.92 "Hg

Humidity: 77%

Dew Point: 45 °F

Location of EinbeckLocation

Past Weather in Einbeck — Graph

°F

Einbeck Temperature Yesterday

Maximum temperature yesterday: 64 °F (at 1:20 PM)
Minimum temperature yesterday: 48 °F (at 10:20 PM)
Average temperature yesterday: 58 °F

High & Low Weather Summary for the Past Weeks

 TemperatureHumidityPressure
High77 °F (Sep 25, 3:50 PM)100% (Sep 21, 3:50 AM)30.30 "Hg (Sep 21, 3:50 AM)
Low43 °F (Sep 24, 6:50 AM)34% (Sep 25, 4:20 PM)29.83 "Hg (Sep 29, 8:20 PM)
Average60 °F74%30.09 "Hg
* Reported Sep 16 2:20 AM — Oct 1 2:20 AM, Einbeck, Weather by CustomWeather, © 2016

Note: Actual official high and low records may vary slightly from our data, if they occured in-between our weather recording intervals... More about our weather records

Advertising

Einbeck Weather History for the Previous 24 Hours

Scroll right to see more
 ConditionsComfort  
Time TempWeatherWind HumidityBarometerVisibility
2:20 AM
Sat, Oct 1
52 °FClear.5 mph77%29.92 "Hg10 mi
1:50 AM52 °FClear.5 mph77%29.92 "Hg10 mi
1:20 AM52 °FClear.6 mph82%29.92 "Hg10 mi
12:50 AM52 °FClear.6 mph77%29.92 "Hg10 mi
12:20 AM50 °FClear.5 mph82%29.95 "Hg10 mi
11:50 PM
Fri, Sep 30
50 °FClear.5 mph82%29.95 "Hg10 mi
11:20 PM48 °FClear.5 mph87%29.95 "Hg10 mi
10:50 PM48 °FClear.2 mph87%29.95 "Hg10 mi
10:20 PM48 °FClear.1 mph87%29.95 "Hg10 mi
9:50 PM50 °FClear.2 mph82%29.95 "Hg10 mi
9:20 PM50 °FClear.1 mph82%29.95 "Hg10 mi
8:50 PM52 °FClear.2 mph77%29.95 "Hg10 mi
8:20 PM54 °FClear.2 mph72%29.95 "Hg10 mi
7:50 PM57 °FPassing clouds.5 mph63%29.92 "HgN/A
7:20 PM59 °FClear.6 mph59%29.92 "Hg10 mi
6:50 PM61 °FPartly sunny.6 mph55%29.92 "HgN/A
6:20 PM63 °FScattered clouds.8 mph52%29.92 "HgN/A
5:50 PM64 °FScattered clouds.10 mph52%29.92 "HgN/A
5:20 PM64 °FScattered clouds.12 mph52%29.89 "HgN/A
4:50 PM64 °FScattered clouds.13 mph52%29.92 "HgN/A
4:20 PM64 °FScattered clouds.13 mph56%29.92 "HgN/A
3:50 PM64 °FScattered clouds.9 mph56%29.92 "HgN/A
3:20 PM63 °FBroken clouds.13 mph59%29.92 "HgN/A
2:50 PM63 °FBroken clouds.13 mph59%29.92 "HgN/A
2:20 PM63 °FBroken clouds.13 mph56%29.92 "HgN/A
1:50 PM64 °FBroken clouds.15 mph56%29.92 "HgN/A
1:20 PM64 °FBroken clouds.10 mph60%29.92 "HgN/A
12:50 PM63 °FBroken clouds.13 mph68%29.92 "HgN/A
12:20 PM63 °FMild.12 mph73%29.92 "HgN/A
11:50 AM61 °FBroken clouds.9 mph77%29.92 "HgN/A
11:20 AM61 °FBroken clouds.6 mph77%29.92 "HgN/A
10:50 AM59 °FBroken clouds.6 mph82%29.92 "HgN/A
10:20 AM59 °FPassing clouds.7 mph82%29.92 "HgN/A
9:50 AM59 °FSunny.7 mph82%29.92 "Hg10 mi
9:20 AM59 °FSunny.8 mph82%29.92 "Hg10 mi
8:50 AM57 °FSunny.6 mph88%29.89 "Hg10 mi
8:20 AM57 °FPassing clouds.6 mph88%29.89 "HgN/A
7:50 AM57 °FPassing clouds.7 mph88%29.89 "HgN/A
7:20 AM57 °FClear.8 mph88%29.89 "Hg10 mi
6:50 AM57 °FClear.7 mph88%29.89 "Hg10 mi
6:20 AM57 °FPassing clouds.7 mph88%29.89 "HgN/A
5:50 AM57 °FPartly cloudy.7 mph88%29.89 "HgN/A
5:20 AM57 °FLight rain. Passing clouds.7 mph88%29.89 "HgN/A
4:50 AM57 °FPartly cloudy.6 mph88%29.89 "HgN/A
4:20 AM57 °FPartly cloudy.7 mph88%29.86 "HgN/A
3:50 AM57 °FLight rain. Partly cloudy.7 mph88%29.89 "HgN/A
3:20 AM57 °FLight rain. Passing clouds.7 mph88%29.89 "HgN/A
Weather by CustomWeather, © 2016

See weather overviewHow to use our weather pages